Location: Moscow Mills
(38.9478°N, 90.9182°W)
Time: 06:46:49
(UTC+00:00)

Daily predictions for brighter satellites

Satellite Brightness Start Highest point End
(mag) Time Altitude Azimuth Time Altitude Azimuth Time Altitude Azimuth
CBERS-1 4.0 12:01:46 10° NNE 12:06:55 87° WNW 12:12:00 10° SSW
Cosmos 1025 Rocket 3.1 12:04:55 10° SSW 12:09:10 55° W 12:13:28 10° N
Cosmos 2297 3.8 12:08:42 10° NNW 12:14:15 60° WSW 12:19:45 10° S
Cosmos 1674 Rocket 4.2 12:11:12 10° SW 12:15:12 33° WNW 12:19:14 10° NNW
Lacrosse 5 rocket 3.0 12:13:38 10° NNW 12:16:11 20° NE 12:18:40 10° E
Cosmos 1943 3.3 12:10:44 10° SW 12:16:14 57° WNW 12:21:46 10° NNE
Cosmos 1484 Rocket 3.1 12:13:42 10° N 12:16:57 35° WNW 12:20:10 10° SW
Cosmos 1400 Rocket 3.4 12:15:49 10° NNW 12:19:05 31° W 12:22:20 10° SSW
Cosmos 2369 Rocket 2.4 12:13:36 10° NNW 12:19:08 53° WSW 12:24:39 10° S
Cosmos 1603 4.1 12:13:49 10° SSW 12:19:31 73° ESE 12:25:15 10° NNE
USA 229 DEB 4.2 12:15:11 10° WSW 12:20:24 31° NW 12:26:10 10° NNE
USA 229 4.2 12:15:24 10° WSW 12:20:37 31° NW 12:26:24 10° NNE
USA 267 4.4 12:16:37 10° NNE 12:21:37 24° NNW 12:26:36 10° WNW
Landsat 7 4.3 23:09:39 10° SE 23:13:54 36° ENE 23:18:09 10° N
Cosmos 1725 Rocket 4.3 23:08:33 10° S 23:14:48 78° W 23:21:08 10° N
Cosmos 2233 Rocket 4.0 23:09:48 10° S 23:16:03 73° E 23:22:22 10° N
Cosmos 1300 Rocket 3.6 23:12:47 10° S 23:17:11 85° E 23:21:35 10° N
CORIOLIS 4.1 23:14:52 10° SSE 23:20:11 67° ENE 23:25:30 10° N
CBERS-1 4.5 23:15:26 10° S 23:20:30 69° WSW 23:25:36 10° NNW
Cosmos 407 Rocket 3.8 23:19:34 10° S 23:24:32 46° ESE 23:29:27 10° NNE
ISS -3.7 23:21:24 10° SW 23:24:43 82° NW 23:28:05 10° NE
CZ-2D R/B 3.1 23:23:10 10° SSE 23:26:10 42° ENE 23:29:11 10° N
SL-12 R/B(2) 4.3 23:19:09 10° SSW 23:26:41 68° ESE 23:35:43 10° NE
OAO 3 Rocket 4.1 23:24:27 10° SW 23:28:46 37° SSE 23:33:01 10° E
Cosmos 1943 Rocket 2.5 23:23:34 10° S 23:28:54 46° ESE 23:34:14 10° NE
Cosmos 2082 Rocket 3.6 23:25:46 10° NNE 23:29:14 16° NE 23:32:41 10° E
Cosmos 2278 Rocket 2.6 23:23:58 10° S 23:29:18 44° ESE 23:34:38 10° NE
Aureole 3 Rocket 3.4 23:28:52 10° SE 23:31:24 22° E 23:33:50 10° NE
IRS-1C 4.1 23:26:26 10° SSE 23:31:40 65° ENE 23:36:57 10° N
Cosmos 1975 Rocket 3.2 23:29:03 10° N 23:33:18 52° E 23:37:33 10° SSE
ATLAS 5 CENTAUR R/B 2.0 23:31:05 10° NNW 23:35:35 53° NE 23:41:08 10° SE
MOS 1 Rocket 3.5 23:36:08 10° SE 23:40:04 38° ENE 23:44:08 10° N
SAR-Lupe-1 3.9 23:36:49 10° SSE 23:40:21 78° ENE 23:43:55 10° N
COSMO-SKYMED 1 3.6 23:37:03 10° NE 23:40:24 23° E 23:43:43 10° SSE
USA 215 3.2 23:36:01 10° SE 23:42:32 78° NE 23:49:05 10° NW
SKYMED 2 4.0 23:40:42 10° NNE 23:44:49 40° E 23:48:53 10° SSE
Helios 1A Rocket 3.6 23:43:02 13° NE 23:45:18 24° E 23:48:05 10° SSE
SAR-Lupe-4 4.2 23:49:01 10° S 23:52:33 58° W 23:56:05 10° NNW
RESURS DK-1 3.1 23:51:15 10° N 23:54:47 29° ENE 23:57:09 16° ESE
